Location: Helsinki
(60.1699°N, 24.9384°E)
Time: 23:36:41
(UTC+02:00)

Altair - Pass Details

Date: 31 October 2020
Orbit: 1502 x 1682 km, 47.2° (Epoch: 25 November)

Event Time Altitude Azimuth Distance (km) Brightness Sun altitude
Rises 04:41:26 0° 208° (SSW) 4,644 - -22.5°
Exits shadow 04:43:14 - 203° (SSW) 4,154 9.5 -22.3°
Reaches altitude 10° 04:45:08 10° 196° (SSW) 3,681 9.2 -22.1°
Maximum altitude 04:52:03 24° 147° (SSE) 2,763 9.1 -21.2°
Drops below altitude 10° 04:59:09 10° 98° (E) 3,782 10.7 -20.3°
Sets 05:03:00 0° 86° (E) 4,799 11.7 -19.9°
